Multibeam Report for TN311


Ship Name: Thomas G. Thompson
Chief Scientist: Chadwell, David
Scripps Institution of Oceanography
Source Organization: UNOLS R2R
Start Date: 2014-06-10
End Date: 2014-06-14


View ISO Metadata

Visit the full NCEI Bathymetry Viewer


Multibeam Bathymetry

Cruise Details

Project: Permanent Seafloor Benchmarks for Geodetic Measurements of Horizontal and Vertical Plate Motion
Instrument: Kongsberg EM302

Data Quality

Number of Files: 77
Number of Records: 86302
BATHYMETRY DATA Quantity Percentage
Number of Beams 37282464 100%
Number of Good Beams 31702538 85.03%
Number of Zero Beams 0 0%
Number of Flagged Beams 5579926 14.97%

Navigation Totals

Total Time: 36.6414 hours
Total Track Length: 492.6219 km
Average Speed: 13.444 km/hr (7.2592 knots)

Cruise Bounds

Northern Extent: 44.9447
Southern Extent: 44.40315
Western Extent: -126.03637
Eastern Extent: -124.16443

Limits

Minimum Sonar Depth 3.3217 Maximum Sonar Depth 8.3156
Minimum Altitude 47.9665 Maximum Altitude 3695.041
Minimum Depth 41.3104 Maximum Depth 4019.6538

File Information

Full Resolution Bathymetry as collected (raw): 75

Files File Size Description
0000_20140611_022829_TGT.all.mb58.gz 520.46MB Kongsberg multibeam vendor format
0001_20140611_025829_TGT.all.mb58.gz 566.91MB Kongsberg multibeam vendor format
0002_20140611_032829_TGT.all.mb58.gz 384.79MB Kongsberg multibeam vendor format
0003_20140611_035829_TGT.all.mb58.gz 276.50MB Kongsberg multibeam vendor format
0004_20140611_042830_TGT.all.mb58.gz 198.21MB Kongsberg multibeam vendor format
0005_20140611_045830_TGT.all.mb58.gz 126.35MB Kongsberg multibeam vendor format
0006_20140611_052831_TGT.all.mb58.gz 128.02MB Kongsberg multibeam vendor format
0007_20140611_055847_TGT.all.mb58.gz 187.81MB Kongsberg multibeam vendor format
0008_20140611_062833_TGT.all.mb58.gz 205.30MB Kongsberg multibeam vendor format
0009_20140611_065830_TGT.all.mb58.gz 209.60MB Kongsberg multibeam vendor format
0010_20140611_072835_TGT.all.mb58.gz 209.17MB Kongsberg multibeam vendor format
0011_20140611_075831_TGT.all.mb58.gz 207.00MB Kongsberg multibeam vendor format
0012_20140611_082835_TGT.all.mb58.gz 204.18MB Kongsberg multibeam vendor format
0013_20140611_085830_TGT.all.mb58.gz 217.97MB Kongsberg multibeam vendor format
0014_20140611_092836_TGT.all.mb58.gz 221.82MB Kongsberg multibeam vendor format
0015_20140611_095837_TGT.all.mb58.gz 225.26MB Kongsberg multibeam vendor format
0016_20140611_102831_TGT.all.mb58.gz 223.85MB Kongsberg multibeam vendor format
0017_20140611_105834_TGT.all.mb58.gz 224.64MB Kongsberg multibeam vendor format
0018_20140611_112836_TGT.all.mb58.gz 223.84MB Kongsberg multibeam vendor format
0019_20140611_115832_TGT.all.mb58.gz 230.36MB Kongsberg multibeam vendor format
0020_20140611_122832_TGT.all.mb58.gz 224.96MB Kongsberg multibeam vendor format
0021_20140611_125836_TGT.all.mb58.gz 225.51MB Kongsberg multibeam vendor format
0022_20140611_132832_TGT.all.mb58.gz 221.72MB Kongsberg multibeam vendor format
0023_20140611_135835_TGT.all.mb58.gz 218.85MB Kongsberg multibeam vendor format
0024_20140611_142830_TGT.all.mb58.gz 222.06MB Kongsberg multibeam vendor format
0025_20140611_145832_TGT.all.mb58.gz 91.54MB Kongsberg multibeam vendor format
0026_20140611_174925_TGT.all.mb58.gz 202.96MB Kongsberg multibeam vendor format
0027_20140611_181915_TGT.all.mb58.gz 203.95MB Kongsberg multibeam vendor format
0028_20140611_184913_TGT.all.mb58.gz 203.55MB Kongsberg multibeam vendor format
0029_20140611_191917_TGT.all.mb58.gz 204.16MB Kongsberg multibeam vendor format
0030_20140611_194919_TGT.all.mb58.gz 202.91MB Kongsberg multibeam vendor format
0031_20140611_201914_TGT.all.mb58.gz 188.98MB Kongsberg multibeam vendor format
0032_20140613_211324_TGT.all.mb58.gz 126.33MB Kongsberg multibeam vendor format
0033_20140613_232501_TGT.all.mb58.gz 202.59MB Kongsberg multibeam vendor format
0034_20140613_235457_TGT.all.mb58.gz 203.97MB Kongsberg multibeam vendor format
0035_20140614_002458_TGT.all.mb58.gz 203.97MB Kongsberg multibeam vendor format
0036_20140614_005458_TGT.all.mb58.gz 202.71MB Kongsberg multibeam vendor format
0037_20140614_012458_TGT.all.mb58.gz 203.39MB Kongsberg multibeam vendor format
0038_20140614_015456_TGT.all.mb58.gz 204.04MB Kongsberg multibeam vendor format
0039_20140614_022456_TGT.all.mb58.gz 203.06MB Kongsberg multibeam vendor format
0040_20140614_025500_TGT.all.mb58.gz 206.69MB Kongsberg multibeam vendor format
0041_20140614_032503_TGT.all.mb58.gz 201.57MB Kongsberg multibeam vendor format
0042_20140614_035455_TGT.all.mb58.gz 205.93MB Kongsberg multibeam vendor format
0043_20140614_042457_TGT.all.mb58.gz 208.86MB Kongsberg multibeam vendor format
0044_20140614_045502_TGT.all.mb58.gz 205.31MB Kongsberg multibeam vendor format
0045_20140614_052457_TGT.all.mb58.gz 207.13MB Kongsberg multibeam vendor format
0046_20140614_055459_TGT.all.mb58.gz 206.28MB Kongsberg multibeam vendor format
0047_20140614_062502_TGT.all.mb58.gz 203.54MB Kongsberg multibeam vendor format
0048_20140614_065525_TGT.all.mb58.gz 213.60MB Kongsberg multibeam vendor format
0049_20140614_072501_TGT.all.mb58.gz 216.80MB Kongsberg multibeam vendor format
0050_20140614_075457_TGT.all.mb58.gz 213.87MB Kongsberg multibeam vendor format
0051_20140614_082502_TGT.all.mb58.gz 192.29MB Kongsberg multibeam vendor format
0052_20140614_085456_TGT.all.mb58.gz 217.78MB Kongsberg multibeam vendor format
0053_20140614_092502_TGT.all.mb58.gz 209.63MB Kongsberg multibeam vendor format
0054_20140614_095456_TGT.all.mb58.gz 215.89MB Kongsberg multibeam vendor format
0055_20140614_102502_TGT.all.mb58.gz 210.08MB Kongsberg multibeam vendor format
0056_20140614_105456_TGT.all.mb58.gz 205.67MB Kongsberg multibeam vendor format
0057_20140614_112456_TGT.all.mb58.gz 203.41MB Kongsberg multibeam vendor format
0058_20140614_115503_TGT.all.mb58.gz 211.82MB Kongsberg multibeam vendor format
0059_20140614_122457_TGT.all.mb58.gz 220.18MB Kongsberg multibeam vendor format
0060_20140614_125456_TGT.all.mb58.gz 220.29MB Kongsberg multibeam vendor format
0061_20140614_132457_TGT.all.mb58.gz 206.73MB Kongsberg multibeam vendor format
0062_20140614_135457_TGT.all.mb58.gz 208.15MB Kongsberg multibeam vendor format
0063_20140614_142500_TGT.all.mb58.gz 204.57MB Kongsberg multibeam vendor format
0064_20140614_145456_TGT.all.mb58.gz 202.86MB Kongsberg multibeam vendor format
0065_20140614_152458_TGT.all.mb58.gz 187.60MB Kongsberg multibeam vendor format
0066_20140614_155456_TGT.all.mb58.gz 202.58MB Kongsberg multibeam vendor format
0067_20140614_162458_TGT.all.mb58.gz 173.43MB Kongsberg multibeam vendor format
0068_20140614_165456_TGT.all.mb58.gz 293.60MB Kongsberg multibeam vendor format
0069_20140614_172456_TGT.all.mb58.gz 355.33MB Kongsberg multibeam vendor format
0070_20140614_175456_TGT.all.mb58.gz 370.05MB Kongsberg multibeam vendor format
0071_20140614_182456_TGT.all.mb58.gz 414.16MB Kongsberg multibeam vendor format
0072_20140614_185456_TGT.all.mb58.gz 475.69MB Kongsberg multibeam vendor format
0073_20140614_192456_TGT.all.mb58.gz 439.30MB Kongsberg multibeam vendor format
0074_20140614_195456_TGT.all.mb58.gz 282.41MB Kongsberg multibeam vendor format

Metadata Files: 2

Files File Size Description
TN311_Multibeam.xml NGDC created ISO metadata
em302_bag_info.tar.gz 4.2KB Additional cruise information